sat.trackr.live / text

‹ back to catalog

KUIPER-00570

NORAD 69271 · 2026-118E

PAYLOAD ACTIVE UNKNOWN

§ Identity

Operator
Country
US
Launch date
2026-05-29
Launch site
AFETR
Launch vehicle
Mass (kg)
RCS (m²)

External: N2YO · Heavens-Above · Gunter

§ Orbital elements

Epoch: 2026-09-19T11:48:33.119136Z

Period
97.30 min
Inclination
51.9001°
Eccentricity
0.0000272
Mean motion
14.79931622 rev/d
Perigee alt
629.3 km
Apogee alt
629.7 km
Semi-major
7,007.7 km
B*
9.4396e-5
RAAN
346.2473°
Arg perigee
62.0310°
Mean anomaly
298.0680°
Rev number
1,807

§ Raw data

KUIPER-005701 69271U 26118E   26262.49204999  .00000499  00000+0  94396-4 0  99932 69271  51.9001 346.2473 0000272  62.0310 298.0680 14.79931622 18078

JSON: /api/v1/satellites/69271 · /tle

For live sub-satellite position, see the globe view (requires WebGL).

§ Visibility from observer

Set your observer location to see the next 7 days of passes ≥ 10°. The values pass through the URL so the page stays shareable.

No JS? Fill the form by hand. The geolocation button needs JavaScript.